Laconia, New Hampshire, United States (03246)
Lat: 43.53N, Lon: 71.47W
Wx Zone: NHZ009
Local Info
Past Weather Observations for Saturday, February 6, 2016

NOTE: This archive is for the closest National Weather Service station to Laconia. Information may differ from the station used for current weather conditions.

Click here for Long-term Archive

Time Weather Temperature Dewpoint Humidity Pressure Winds Precip Visibility
23:55
Clear
28°F / -2°C 18°F / -8°C 64% 30.12 in
(1020 mb)
SW 12.7 mph
(SW 20 kph)
- 10SM
23:35
Clear
28°F / -2°C 18°F / -8°C 64% 30.15 in
(1021 mb)
SW 11.5 mph
(SW 19 kph)
- 10SM
23:15
Clear
30°F / -1°C 18°F / -8°C 59% 30.15 in
(1021 mb)
SW 13.8 mph
(SW 22 kph)
- 10SM
22:55
Clear
30°F / -1°C 18°F / -8°C 59% 30.15 in
(1021 mb)
SW 11.5 mph
(SW 19 kph)
- 10SM
22:35
Clear
30°F / -1°C 19°F / -7°C 64% 30.15 in
(1021 mb)
SW 13.8 mph
(SW 22 kph)
- 10SM
22:15
Clear
30°F / -1°C 19°F / -7°C 64% 30.15 in
(1021 mb)
SW 11.5 mph
(SW 19 kph)
- 10SM
21:55
Clear
30°F / -1°C 19°F / -7°C 64% 30.15 in
(1021 mb)
SW 15 mph
(SW 24 kph)
- 10SM
21:35
Clear
30°F / -1°C 18°F / -8°C 59% 30.15 in
(1021 mb)
SW 13.8 mph
(SW 22 kph)
- 10SM
21:15
Clear
30°F / -1°C 19°F / -7°C 64% 30.18 in
(1022 mb)
SSE 16.1 mph
(SSE 26 kph)
- 10SM
20:55
Clear
30°F / -1°C 19°F / -7°C 64% 30.18 in
(1022 mb)
S 12.7 mph
(S 20 kph)
- 10SM
20:35
Clear
32°F / 0°C 18°F / -8°C 55% 30.18 in
(1022 mb)
S 11.5 mph
(S 19 kph)
- 10SM
20:15
Partly Cloudy
32°F / 0°C 19°F / -7°C 60% 30.18 in
(1022 mb)
SSE 13.8 mph
(SSE 22 kph)
- 10SM
19:55
Overcast
34°F / 1°C 18°F / -8°C 51% 30.18 in
(1022 mb)
S 10.4 mph
(S 17 kph)
- 10SM
19:35
Overcast
34°F / 1°C 18°F / -8°C 51% 30.18 in
(1022 mb)
SSE 13.8 mph
(SSE 22 kph)
- 10SM
19:15
Overcast
36°F / 2°C 18°F / -8°C 48% 30.18 in
(1022 mb)
SSE 12.7 mph
(SSE 20 kph)
- 10SM
18:55
Overcast
36°F / 2°C 18°F / -8°C 48% 30.18 in
(1022 mb)
SSE 13.8 mph
(SSE 22 kph)
- 10SM
18:35
Overcast
36°F / 2°C 18°F / -8°C 48% 30.18 in
(1022 mb)
SW 11.5 mph
(SW 19 kph)
- 10SM
18:15
Overcast
36°F / 2°C 18°F / -8°C 48% 30.18 in
(1022 mb)
SW 9.2 mph
(SW 15 kph)
- 10SM
17:55
Overcast
36°F / 2°C 18°F / -8°C 48% 30.18 in
(1022 mb)
SW 8.1 mph
(SW 13 kph)
- 10SM
17:35
Overcast
36°F / 2°C 18°F / -8°C 48% 30.18 in
(1022 mb)
SW 9.2 mph
(SW 15 kph)
- 10SM
17:15
Overcast
36°F / 2°C 18°F / -8°C 48% 30.15 in
(1021 mb)
S 9.2 mph
(S 15 kph)
- 10SM
16:55
Overcast
36°F / 2°C 16°F / -9°C 44% 30.15 in
(1021 mb)
SSE 8.1 mph
(SSE 13 kph)
- 10SM
16:35
Overcast
36°F / 2°C 16°F / -9°C 44% 30.15 in
(1021 mb)
SSE 9.2 mph
(SSE 15 kph)
- 10SM
16:15
Mostly Cloudy
36°F / 2°C 18°F / -8°C 48% 30.15 in
(1021 mb)
SW 8.1 mph
(SW 13 kph)
- 10SM
15:55
Partly Cloudy
37°F / 3°C 16°F / -9°C 41% 30.15 in
(1021 mb)
SW 15 mph
(SW 24 kph)
- 10SM
15:35
Clear
37°F / 3°C 18°F / -8°C 45% 30.15 in
(1021 mb)
SW 11.5 mph
(SW 19 kph)
- 10SM
15:15
Clear
37°F / 3°C 18°F / -8°C 45% 30.18 in
(1022 mb)
SW 10.4 mph
(SW 17 kph)
- 10SM
14:55
Partly Cloudy
36°F / 2°C 18°F / -8°C 48% 30.18 in
(1022 mb)
SW 11.5 mph
(SW 19 kph)
- 10SM
14:35
Mostly Cloudy
36°F / 2°C 18°F / -8°C 48% 30.18 in
(1022 mb)
SW 11.5 mph
(SW 19 kph)
- 10SM
14:15
Clear
36°F / 2°C 18°F / -8°C 48% 30.18 in
(1022 mb)
SW 12.7 mph
(SW 20 kph)
- 10SM
13:55
Partly Cloudy
36°F / 2°C 18°F / -8°C 48% 30.18 in
(1022 mb)
SW 12.7 mph
(SW 20 kph)
- 10SM
13:35
Partly Cloudy
36°F / 2°C 19°F / -7°C 52% 30.18 in
(1022 mb)
SSW 15 mph
(SSW 24 kph)
- 10SM
13:15
Clear
36°F / 2°C 19°F / -7°C 52% 30.21 in
(1023 mb)
SW 11.5 mph
(SW 19 kph)
- 10SM
12:55
Clear
36°F / 2°C 19°F / -7°C 52% 30.21 in
(1023 mb)
SSW 11.5 mph
(SSW 19 kph)
- 10SM
12:35
Clear
34°F / 1°C 19°F / -7°C 56% 30.21 in
(1023 mb)
SW 11.5 mph
(SW 19 kph)
- 10SM
12:15
Partly Cloudy
34°F / 1°C 19°F / -7°C 56% 30.24 in
(1024 mb)
SW 11.5 mph
(SW 19 kph)
- 10SM
11:55
Clear
32°F / 0°C 18°F / -8°C 55% 30.24 in
(1024 mb)
SW 9.2 mph
(SW 15 kph)
- 10SM
11:35
Clear
30°F / -1°C 18°F / -8°C 59% 30.27 in
(1025 mb)
SW 13.8 mph
(SW 22 kph)
- 10SM
11:15
Clear
30°F / -1°C 18°F / -8°C 59% 30.27 in
(1025 mb)
SW 13.8 mph
(SW 22 kph)
- 10SM
10:55
Clear
28°F / -2°C 16°F / -9°C 59% 30.3 in
(1026 mb)
SW 6.9 mph
(SW 11 kph)
- 10SM
10:35
Clear
27°F / -3°C 14°F / -10°C 59% 30.3 in
(1026 mb)
SW 6.9 mph
(SW 11 kph)
- 10SM
10:15
Clear
27°F / -3°C 14°F / -10°C 59% 30.3 in
(1026 mb)
SW 8.1 mph
(SW 13 kph)
- 10SM
09:55
Clear
27°F / -3°C 12°F / -11°C 54% 30.33 in
(1027 mb)
SSW 9.2 mph
(SSW 15 kph)
- 10SM
09:35
Clear
25°F / -4°C 12°F / -11°C 59% 30.3 in
(1026 mb)
SW 8.1 mph
(SW 13 kph)
- 10SM
09:15
Clear
23°F / -5°C 12°F / -11°C 63% 30.33 in
(1027 mb)
SSW 8.1 mph
(SSW 13 kph)
- 10SM
08:55
Clear
23°F / -5°C 10°F / -12°C 58% 30.3 in
(1026 mb)
SW 5.8 mph
(SW 9 kph)
- 10SM
08:35
Clear
23°F / -5°C 12°F / -11°C 63% 30.3 in
(1026 mb)
SW 8.1 mph
(SW 13 kph)
- 10SM
08:15
Clear
21°F / -6°C 10°F / -12°C 63% 30.3 in
(1026 mb)
SW 9.2 mph
(SW 15 kph)
- 10SM
07:55
Clear
19°F / -7°C 10°F / -12°C 68% 30.3 in
(1026 mb)
SW 5.8 mph
(SW 9 kph)
- 10SM
07:35
Clear
19°F / -7°C 12°F / -11°C 73% 30.3 in
(1026 mb)
SSW 3.5 mph
(SSW 6 kph)
- 10SM
07:15
Clear
16°F / -9°C 7°F / -14°C 67% 30.3 in
(1026 mb)
Calm - 10SM
06:55
Clear
19°F / -7°C 10°F / -12°C 68% 30.3 in
(1026 mb)
SSW 5.8 mph
(SSW 9 kph)
- 10SM
06:35
Clear
18°F / -8°C 10°F / -12°C 73% 30.3 in
(1026 mb)
SW 5.8 mph
(SW 9 kph)
- 10SM
06:15
Clear
14°F / -10°C 9°F / -13°C 79% 30.27 in
(1025 mb)
SSW 4.6 mph
(SSW 7 kph)
- 10SM
05:55
Clear
16°F / -9°C 9°F / -13°C 73% 30.27 in
(1025 mb)
SSW 4.6 mph
(SSW 7 kph)
- 10SM
05:35
Clear
14°F / -10°C 9°F / -13°C 79% 30.27 in
(1025 mb)
Calm - 10SM
05:15
Clear
12°F / -11°C 9°F / -13°C 85% 30.27 in
(1025 mb)
Calm - 10SM
04:55
Clear
14°F / -10°C 9°F / -13°C 79% 30.27 in
(1025 mb)
Calm - 10SM
04:35
Clear
14°F / -10°C 9°F / -13°C 79% 30.27 in
(1025 mb)
Calm - 10SM
04:15
Clear
16°F / -9°C 10°F / -12°C 79% 30.27 in
(1025 mb)
Calm - 10SM
03:55
Clear
14°F / -10°C 10°F / -12°C 85% 30.24 in
(1024 mb)
SW 3.5 mph
(SW 6 kph)
- 10SM
03:35
Clear
14°F / -10°C 9°F / -13°C 79% 30.24 in
(1024 mb)
SSW 4.6 mph
(SSW 7 kph)
- 10SM
03:15
Clear
16°F / -9°C 10°F / -12°C 79% 30.24 in
(1024 mb)
Calm - 10SM
02:55
Clear
16°F / -9°C 9°F / -13°C 73% 30.24 in
(1024 mb)
Calm - 10SM
02:35
Clear
16°F / -9°C 9°F / -13°C 73% 30.24 in
(1024 mb)
SSW 5.8 mph
(SSW 9 kph)
- 10SM
02:15
Clear
18°F / -8°C 10°F / -12°C 73% 30.24 in
(1024 mb)
Calm - 10SM
01:55
Clear
18°F / -8°C 9°F / -13°C 68% 30.24 in
(1024 mb)
Calm - 10SM
01:35
Clear
21°F / -6°C 9°F / -13°C 58% 30.24 in
(1024 mb)
Calm - 10SM
01:15
Clear
21°F / -6°C 10°F / -12°C 63% 30.24 in
(1024 mb)
SW 3.5 mph
(SW 6 kph)
- 10SM
00:55
Clear
19°F / -7°C 9°F / -13°C 63% 30.21 in
(1023 mb)
SW 6.9 mph
(SW 11 kph)
- 10SM
00:35
Clear
19°F / -7°C 9°F / -13°C 63% 30.21 in
(1023 mb)
Calm - 10SM
00:15
Clear
21°F / -6°C 10°F / -12°C 63% 30.21 in
(1023 mb)
SSE 4.6 mph
(SSE 7 kph)
- 10SM
Time Weather Temperature Dewpoint Humidity Pressure Winds Precip Visibility


Weather for websites

WeatherForYou.com, LLC is not responsible for any damages or problems caused by this service. Current weather conditions are obtained from the closest station including government and personal stations which may have varying degrees of accuracy. Weather forecasts are derived from the NOAA NDFD. Like all things, this site belongs to Jesus Christ... He just trusts us to maintain it. If you have any questions or comments email webmaster@weatherforyou.com

Copyright © 2016, WeatherForYou.com LLC. All rights reserved.